Location: Ostrava
(49.8330°N, 18.2830°E)
Time: 02:07:01
(UTC+02:00)

Vanguard 2 Rocket - Visible Passes

Search period start: 24 June 2017 00:00
Search period end: 04 July 2017 00:00
Orbit: 554 x 3328 km, 32.9° (Epoch: 22 June)

Date Brightness Start Highest point End Pass type
(mag) Time Alt. Az. Time Alt. Az. Time Alt. Az.
27 Jun 8.7 22:58:27 10° SSW 23:02:51 15° S 23:02:59 15° S visible
28 Jun 8.8 21:58:21 10° SSW 22:03:36 16° S 22:07:39 10° SE visible
29 Jun 8.9 00:11:53 10° SW 00:13:32 13° SSW 00:13:32 13° SSW visible
29 Jun 8.4 23:11:17 10° SW 23:17:03 19° S 23:18:04 18° S visible
30 Jun 8.8 22:10:39 10° SW 22:17:49 20° S 22:22:26 12° SE visible
01 Jul 8.8 00:25:40 10° SW 00:28:17 15° SW 00:28:17 15° SW visible
01 Jul 8.4 23:24:41 10° SW 23:31:12 21° S 23:32:31 20° S visible
02 Jul 8.7 22:23:39 10° SW 22:31:59 24° S 22:36:39 14° SE visible
03 Jul 8.9 00:39:53 10° WSW 00:42:29 14° SW 00:42:29 14° SW visible
03 Jul 8.4 23:38:28 10° WSW 23:45:15 21° SSW 23:46:31 20° S visible
